SL-8 DEB *, 3045

Orbit data source: Space-Track

SL-8 DEB *, 3045 is space debris in LEO originally from a launch on Fri, 03 Sep 1965 UTC launched from the Tyuratam Missile And Space Complex (TTMTR). Debris objects in space refer to the collection of defunct objects orbiting the Earth. Examples of debris include non-operational satellites, rocket bodies, and fragments generated from explosions, collisions, or faulty payload assembly.

Loading next visibility...
Identifier
3045, 1965-070G
Orbit
LEO
Country
Flag of CISCIS
Related business
Manufacturer
Unknown
Mission
Spacecraft
Bus & Motor
Unknown
Mass
Unknown
Launch date (UTC)
1965-09-03 (60 years ago)
Launch vehicle
Unknown
Launch site
Tyuratam Missile And Space Complex (TTMTR)
Object type
Payload
Rocket body
Debris
Shape & HBR
Unknown shape, 0.1 m
Radar Cross Section
Small (<0.1 m²)

Expand to show TLE details & history
Last TLE update: 2 days ago

TLE from 2 days ago
0 SL-8 DEB *
1 03045U 65070G   25339.95031132  .00000349  00000-0  26975-2 0  9993
2 03045  55.4296  46.2386 0287049 238.1517 298.5807 12.44587999664879
Epoch: 2025-12-05T22:48Z
TLE epoch observation values (Epoch: 2025-12-05T22:48:26.898Z)
Latitude
5.0601°
Longitude
165.66073°
Altitude
1,384.79 km
Speed
7.215 km/s
True Right ascension
14h 51m 01s
True Declination
5° 01' 57"
Sunlit
Object was in daylight at epoch
Visualization orbit readout
Latitude
Unknown
Longitude
Unknown
Altitude
Unknown
Speed
Unknown
Apparent Right ascension
Unknown
Apparent Declination
Unknown
Sunlit
N/A
Visualization observer readout
Local Sidereal Time
11:28:04
Azimuth
Unknown
Elevation
Unknown
Doppler factor
Unknown
Orbital elements
Apogee altitude
1,712.895 km
Perigee altitude
1,261.352 km
Semi-major axis
7,865.26 km
Eccentricity
0.0287
Inclination
55.4296°
RAAN
46.2386°
Arg. of periapsis
238.1517°
True anomaly
295.64306°
Mean anomaly
298.5807°
Eccentric anomaly
297.11681°
Mean motion
3.11153 °/min
Orbital period
115.7 mins
BSTAR
0.0026975
Loading maneuver chart data...
Computing Atmospheric mass density...
Loading historical data...
Loading historical data...
Loading historical data...
Loading historical data...
Loading historical data...
Loading historical data...
Loading historical data...
Other satellites on launch #70 in the year 1965 (1965-09-03 UTC)

Documentation

Showing up to 5 results
|